Regional Weather Roundup
Issued by NWS

Home | Current Version | Previous Version | Graphics & Text | Print | Product List | Glossary On
Versions: 1 2 3 4 5 6 7 8 9 10 11 12 13 14 15 16 17 18 19 20 21 22 23 24 25 26 27 28 29 30 31 32 33 34 35 36 37 38 39 40 41 42 43 44 45 46 47 48 49 50
000
ASUS45 KABQ 200810
RWRNM
WEATHER ROUNDUP FOR NEW MEXICO
NATIONAL WEATHER SERVICE ALBUQUERQUE NM
100 AM MST SAT DEC 20 2014

NOTE: "FAIR" MEANS FEW OR NO CLOUDS BELOW 12,000 FEET AGL WITH NO
       SIGNIFICANT WEATHER OR OBSTRUCTIONS TO VISION.

      THIS PRODUCT IS RELEASED AS TWO VERSIONS.  ONE VERSION NEAR
      THE TOP OF THE HOUR CONTAINING PRELIMINARY DATA FROM ALBUQUERQUE
      AND OTHER STATIONS.  A FINAL VERSION WITH ADDITIONAL DATA IS
      ISSUED ABOUT 10 MINUTES AFTER THE HOUR.

NMZ501-503-504-510>518-200900-
NORTHWEST PLATEAU/NORTHCENTRAL MOUNTAINS

CITY           SKY/WX    TMP DP  RH WIND       PRES   REMARKS
FARMINGTON     CLEAR     24  22  91 NE6       30.20S WCI  17
LOS ALAMOS     PTCLDY    24  18  75 W3        30.15F
SANTA FE       CLEAR     27  18  69 N13       30.14F WCI  16
TAOS           PTCLDY    14   9  79 N6        30.17S WCI   5
ANGEL FIRE     FAIR       2   0  88 CALM      30.14F

$$
NMZ402-403-502-505>509-200900-
WESTCENTRAL MOUNTAINS/SOUTHWEST MOUNTAINS

CITY           SKY/WX    TMP DP  RH WIND       PRES   REMARKS
GALLUP         FOG       22  20  92 CALM      30.21S VSB 1/4
GRANTS         MOCLDY    23  22  96 NW8       30.21S WCI  13
SILVER CITY    CLEAR     28  27  93 N7        30.19F WCI  21

$$
NMZ407-409-411-412-200900-
SOUTHERN DESERTS

CITY           SKY/WX    TMP DP  RH WIND       PRES   REMARKS
LORDSBURG      FAIR      30  30 100 S3        30.17F
DEMING         CLEAR     29  27  92 S6        30.17F WCI  23
LAS CRUCES     CLEAR     32  27  82 NW13      30.17F WCI  22
HOLLOMAN AFB   CLEAR     29  25  84 CALM      30.15F
ALAMOGORDO     CLEAR     30  27  86 E6        30.16F WCI  24
T OR C         CLEAR     31  23  72 NW8       30.17F WCI  23

$$
NMZ519>523-200900-
CENTRAL VALLEYS/CENTRAL HIGHLANDS

CITY           SKY/WX    TMP DP  RH WIND       PRES   REMARKS
ALBUQUERQUE    PTCLDY    32  24  72 N5        30.18F WCI  27
DOUBLE EAGLE   PTCLDY    25  21  84 NW6       30.17F WCI  18
MORIARTY ARPT  FAIR      21  17  84 CALM      30.14S
CLINES CORNERS PTCLDY    24  19  81 NW23      30.06F WCI   9
BELEN          FAIR      26  23  89 N6        30.18F WCI  19
SOCORRO        FAIR      28  24  84 NW7       30.18F WCI  21

$$
NMZ524>526-539-540-200900-
SOUTHCENTRAL MOUNTAINS

CITY           SKY/WX    TMP DP  RH WIND       PRES   REMARKS
RUIDOSO        PTCLDY    28  16  59 W6        30.15F WCI  22

$$
NMZ527>531-200900-
NORTHEAST HIGHLANDS/NORTHEAST PLAINS

CITY           SKY/WX    TMP DP  RH WIND       PRES   REMARKS
LAS VEGAS      PTCLDY    21  11  65 N6        30.05F WCI  13
RATON          MOCLDY    22  15  75 E3        30.07R
CLAYTON        PTCLDY    31  25  78 W7        30.05F WCI  24

$$
NMZ532>537-200900-
EASTCENTRAL PLAINS

CITY           SKY/WX    TMP DP  RH WIND       PRES   REMARKS
TUCUMCARI      CLEAR     26  23  88 SE3       30.06F
CANNON AFB     FRZ DRZL  31  31  99 S6        30.11S FOG     WCI  26
CLOVIS AIRPORT CLOUDY    32  30  93 S13       30.11F VSB 1   WCI  22

$$
NMZ028-029-538-200900-
SOUTHEAST PLAINS

CITY           SKY/WX    TMP DP  RH WIND       PRES   REMARKS
ROSWELL        CLEAR     28  20  71 W5        30.12F WCI  23
ARTESIA        CLEAR     32  27  80 W8        30.14S WCI  25
CARLSBAD       CLEAR     35  26  69 E3        30.12S
HOBBS          FOG       36  36 100 SE7       30.16S VSB<1/4 WCI  30


$$



USA.gov is the U.S. government's official web portal to all federal, state and local government web resources and services.